This is the latest recevied weather packets stored in our database for station/object W9KHP-1. If no packets are shown the sender has not sent any weather packets the latest 10 day(s).
| Time | Temp. | Humidity | Pressure | Rain* | Wind** | Luminosity | Snow |
|---|---|---|---|---|---|---|---|
| 1778118314 | 10.56° C | 83% | 1017.6 hPa | 0 mm | - | 0 W/m² | - |
| 1778118010 | 10.56° C | 84% | 1017.3 hPa | 0 mm | - | 0 W/m² | - |
| 1778117707 | 11.11° C | 84% | 1017.4 hPa | 0 mm | - | 0 W/m² | - |
| 1778117404 | 11.11° C | 82% | 1017.2 hPa | 0 mm | - | 0 W/m² | - |
| 1778117101 | 11.11° C | 81% | 1017.5 hPa | 0 mm | - | 0 W/m² | - |
| 1778116798 | 11.11° C | 80% | 1017.3 hPa | 0 mm | - | 0 W/m² | - |
| 1778116494 | 11.67° C | 81% | 1017.1 hPa | 0 mm | - | 0 W/m² | - |
| 1778116190 | 11.67° C | 79% | 1017 hPa | 0 mm | - | 0 W/m² | - |
| 1778115885 | 11.67° C | 81% | 1017 hPa | 0 mm | - | 0 W/m² | - |
| 1778115581 | 12.22° C | 82% | 1017 hPa | 0 mm | - | 0 W/m² | - |
| 1778115279 | 12.22° C | 80% | 1017 hPa | 0 mm | - | 1 W/m² | - |
| 1778114975 | 12.78° C | 79% | 1016.8 hPa | 0 mm | - | 1 W/m² | - |
| 1778114673 | 13.33° C | 72% | 1017.3 hPa | 0 mm | - | 3 W/m² | - |
| 1778114370 | 13.33° C | 73% | 1017.2 hPa | 0 mm | - | 5 W/m² | - |
| 1778114064 | 13.89° C | 71% | 1016.7 hPa | 0 mm | - | 10 W/m² | - |
| 1778113760 | 13.89° C | 68% | 1017 hPa | 0 mm | - | 14 W/m² | - |
| 1778113456 | 13.89° C | 69% | 1016.7 hPa | 0 mm | - | 19 W/m² | - |
| 1778113149 | 13.89° C | 71% | 1017.1 hPa | 0 mm | - | 25 W/m² | - |
| 1778112845 | 13.89° C | 69% | 1017 hPa | 0 mm | - | 30 W/m² | - |
| 1778112542 | 13.89° C | 69% | 1016.8 hPa | 0 mm | - | 38 W/m² | - |
| 1778112237 | 14.44° C | 70% | 1016.8 hPa | 0 mm | - | 42 W/m² | - |
| 1778111933 | 14.44° C | 70% | 1016.5 hPa | 0 mm | - | 52 W/m² | - |
| 1778111630 | 14.44° C | 70% | 1016.7 hPa | 0 mm | - | 51 W/m² | - |
| 1778111321 | 14.44° C | 72% | 1016.7 hPa | 0 mm | - | 44 W/m² | - |
| 1778111019 | 14.44° C | 72% | 1016.7 hPa | 0 mm | - | 54 W/m² | - |
* Rain latest hour (hover to see other rain measurements)
** Current wind speed in m/s (hover to see current wind gust speed)